SWISSCUBE (35932 NORAD) Tracking and Keplerian Element Data

This shows tracking and keplerian element data for the satellite.

Feedback or suggestion? Click here.




ElementValue
Catalog35932
NameSWISSCUBE
Epoch Orbit61743
Epoch Day130.50343073
Epoch Year2021
RAAN329.3271
Inclination98.6054
Eccentricity0.0007103
Argument of Perigee195.3906
Mean Anonmoly164.7075
Mean Motion14.56525467
Decay Rate1.42E-06
L11 35932U 09051B 21130.50343073 .00000142 00000-0 43044-4 0 9995
L22 35932 98.6054 329.3271 0007103 195.3906 164.7075 14.56525467617433

Live tracking and technical data element details for SWISSCUBE (NORAD 35932). SWISSCUBE can be tracked NOW for your location showing map with azimuth and elevation plus other details from your city location.

Track the satellite on the map from your city or location and see movement details for azimuth, elevation, latitude, longitude, range, height, and movement on the map or in text.







IsCatalogInMostPopularTable: catalog: 35932, numindb: 25100
Update: records affected: 1



GetName: 35932 SWISSCUBE

Hit Count: updated at: Tue, 11 May 2021 20:07:10 GMT